Weather Roundup
Issued by NWS

Home | Current Version | Previous Version | Graphics & Text | Print | Product List | Glossary Off
Versions: 1 2 3 4 5 6 7 8 9 10 11 12 13 14 15 16 17 18 19 20 21 22 23 24 25 26 27 28 29 30 31 32 33 34 35 36 37 38 39 40 41 42 43 44 45 46 47 48 49 50

000
NZUS93 KARX 250259
HRRWXR

CURRENT HOURLY OBSERVATIONS ACROSS
MUCH OF THE UPPER MISSISSIPPI VALLEY
NATIONAL WEATHER SERVICE LA CROSSE WI
1000 PM CDT WED MAY 24 2017


...SOUTHEAST MINNESOTA...


CITY           SKY/WX    TMP DP  RH WIND       PRES   REMARKS
ROCHESTER      CLOUDY    54  50  86 E5        29.72R
ROCHESTER/MAYO NOT AVBL
WINONA         NOT AVBL
AUSTIN         NOT AVBL
ALBERT LEA     NOT AVBL
DODGE CENTER   NOT AVBL
PRESTON        NOT AVBL
OWATONNA       NOT AVBL
FARIBAULT      NOT AVBL
$$

...ELSEWHERE IN MINNESOTA...


CITY           SKY/WX    TMP DP  RH WIND       PRES   REMARKS
MINNEAPOLIS    CLOUDY    59  44  57 E7        29.71R
INTNL FALLS    CLEAR     49  39  68 SE3       29.71R
DULUTH         PTCLDY    47  42  83 E10       29.76R
RED WING       NOT AVBL
REDWOOD FALLS  MOCLDY    56  45  66 E5        29.68S
MANKATO          N/A     53  47  79 E3        29.71
WORTHINGTON    CLEAR     51  47  86 SE6       29.69S
FAIRMONT       CLOUDY    55  49  80 E6        29.71R
$$

...SOUTHWEST WISCONSIN...


CITY           SKY/WX    TMP DP  RH WIND       PRES   REMARKS
LA CROSSE      CLOUDY    57  51  80 NE3       29.70R
PRAIRIE DU CHI CLOUDY    55  48  77 CALM      29.68S
BOSCOBEL       CLOUDY    53  51  93 CALM      29.69R
LONE ROCK      CLOUDY    56  50  80 NE7       29.68R
PLATTEVILLE    PTCLDY    53  53  97 N8        29.67S
FORT MC COY    CLOUDY    54  51  90 CALM      29.71R
MAUSTON-NEW LI CLOUDY    53  51  91 CALM      29.69S
VIROQUA        MOCLDY    52  50  95 MISG      29.70R
WIS DELLS      CLOUDY    53  48  84 N6        29.69R
$$

...ELSEWHERE IN WISCONSIN...


CITY           SKY/WX    TMP DP  RH WIND       PRES   REMARKS
MILWAUKEE      MOCLDY    56  50  80 N16G25    29.60S
MADISON        CLOUDY    53  50  89 N12       29.65S
GREEN BAY      CLOUDY    53  51  93 N14       29.68S
EAU CLAIRE     PTCLDY    51  47  86 CALM      29.71S
BLACK RVR FLS  RAIN      54  50  85 CALM      29.71R
MEDFORD        CLOUDY    52  47  85 NE3       29.72S
WAUSAU         CLOUDY    54  49  83 CALM      29.71R
WIS RAPIDS     CLOUDY    54  49  83 NE6       29.72R
MARSHFIELD     PTCLDY    51  47  86 NE3       29.71R
RICE LAKE      CLOUDY    55  47  74 CALM      29.74R
$$

...NORTHEAST IOWA...


CITY           SKY/WX    TMP DP  RH WIND       PRES   REMARKS
WATERLOO       PTCLDY    53  48  83 NE3       29.69R
DUBUQUE        CLOUDY    54  51  90 N5        29.67R
DECORAH        CLEAR     52  48  87 N3        29.69R
MASON CITY     CLOUDY    52  48  86 NE5       29.71R
CHARLES CITY   CLOUDY    55  52  88 E6        29.71R
OELWEIN        CLOUDY    54  50  87 NE5       29.70R
$$

...ELSEWHERE IN IOWA...


CITY           SKY/WX    TMP DP  RH WIND       PRES   REMARKS
DES MOINES     PTCLDY    57  49  74 CALM      29.69R
IOWA CITY      CLOUDY    59  50  72 N10       29.68R
FORT DODGE     CLEAR     52  46  82 CALM      29.69S
MARSHALLTOWN   CLEAR     52  49  89 E7        29.69R
CEDAR RAPIDS   CLEAR     53  51  93 N8        29.66S
$$

...NORTHERN ILLINOIS...


CITY           SKY/WX    TMP DP  RH WIND       PRES   REMARKS
CHICAGO-OHARE  CLOUDY    54  48  80 N15       29.56S
CHICAGO-MIDWAY CLOUDY    52  49  89 N13       29.55S
MOLINE         CLOUDY    59  51  75 N9        29.63R
ROCKFORD       CLOUDY    57  52  83 N12       29.63R
PEORIA         CLOUDY    58  53  84 N7        29.60R
$$

NOTE: "FAIR" INDICATES FEW OR NO CLOUDS BELOW 12,000 FEET WITH NO
SIGNIFICANT WEATHER AND/OR OBSTRUCTIONS TO VISIBILITY. WIND
SPEEDS ARE IN MILES-PER-HOUR.




USA.gov is the U.S. government's official web portal to all federal, state and local government web resources and services.